Starlink 32268

operational
NORAD ID: 60372 Int'l Des: 2024-138 Owner: SPXS Country: US Constellation: starlink
LEOCIRCULAR

Starlink 32268について

説明を読み込み中...

リアルタイム位置

3D地球を読み込み中...

次回通過

高度履歴

Altitude vs Time

uPlot chart will show altitude changes over time

軌道要素

1 60372U 24138T 25260.67213765 -.00001669 00000-0 -44208-4 0 9994
2 60372 53.1619 33.5550 0001235 121.9308 238.1813 15.30208826 64136
Epoch: Sep 17, 2025 • Age: 25 hours

現在のステータス

高度 487.6 km
速度 7.62 km/s
衛星直下点 -37.71°S, 3.53°W
打ち上げ日 Aug 4, 2024
運用期間 1.1 years
タイプ internet

技術仕様

分類 Payload
質量 730.00 kg
乾燥質量 700.00 kg
総質量 730.00 kg
長さ 0.30 m
直径 4.10 m
スパン 29.00 m
形状 Box + pan
製造者 SPXS
バスタイプ Starlink V2M
フェーズステータス In Orbit
所有者/国 SPXS/US

大規模コンステレーション

Loading constellations...